Hourly Data Report for June 03, 2017

ATIKOKAN (AUT)
ONTARIO

48°45'40.000" N
91°37'41.000" W
389.30 m
6020LPQ
71747
WCH

Download Data

Hourly Data (June 2017)
Hourly Data Report for June 3, 2017
TIME
LST
Temp Definition
°C
Dew Point Definition
°C
Rel Hum Definition
%
Precip. Amount Definition
mm

Wind Dir Definition
10's deg

Wind Spd Definition
km/h
Visibility Definition
km
Stn Press Definition
kPa
Hmdx Definition


Wind Chill Definition


Weather Definition


00:00 16.3 5.6 49 0.0 14 4   96.62     LegendNANA
01:00 15.0 5.0 51 0.0 11 5   96.61     LegendNANA
02:00 11.0 6.2 72 0.0 0 1   96.60     LegendNANA
03:00 10.2 7.1 81 0.0 5 4   96.57     LegendNANA
04:00 11.1 7.8 80 0.0 29 3   96.62     LegendNANA
05:00 11.2 7.7 79 0.0 7 3   96.52     LegendNANA
06:00 14.0 8.0 67 0.0 9 4   96.46     LegendNANA
07:00 16.1 8.1 59 0.0 15 7   96.47     LegendNANA
08:00 14.6 9.4 71 0.0 10 4   96.53     LegendNANA
09:00 14.3 10.2 76 0.0 9 4   96.54     LegendNANA
10:00 15.4 10.3 72 0.0 8 4   96.51     LegendNANA
11:00 17.3 10.9 66 0.0 9 6   96.44     LegendNANA
12:00 18.1 11.7 66 0.0 11 6   96.39     LegendNANA
13:00 21.2 14.3 65 0.0 13 6   96.34 25   LegendNANA
14:00 23.3 13.7 55 0.0 22 8   96.29 26   LegendNANA
15:00 24.7 14.9 55 0.0 19 10   96.19 29   LegendNANA
16:00 25.0 15.4 55 0.0 21 5   96.11 29   LegendNANA
17:00 26.6 10.8 37 0.0 28 11   96.06 28   LegendNANA
18:00 26.8 6.7 28 0.0 28 14   96.05 27   LegendNANA
19:00 24.6 6.9 32 0.0 31 5   96.12 25   LegendNANA
20:00 20.8 8.1 44 0.0 29 4   96.20     LegendNANA
21:00 16.3 8.9 62 0.0   0   96.24     LegendNANA
22:00 14.1 9.7 75 0.0 5 3   96.26     LegendNANA
23:00 12.8 10.0 83 0.0 0 1   96.26     LegendNANA

Notes on Data Quality.

Legend

  • E = Estimated
  • M = Missing
  • NA = Not Available*
  • [empty] = Indicates an unobserved value
Date modified: